Year,Month,Day,Hour,Minute,Value (Times are PST for temperature in C)
2009,10,05,00,00,11.80
2009,10,05,00,01,11.80
2009,10,05,00,02,11.80
2009,10,05,00,03,11.90
2009,10,05,00,04,12.00
2009,10,05,00,05,12.00
2009,10,05,00,06,12.00
2009,10,05,00,07,12.00
2009,10,05,00,08,12.00
2009,10,05,00,09,12.00
2009,10,05,00,10,12.00
2009,10,05,00,11,11.90
2009,10,05,00,12,11.90
2009,10,05,00,13,11.80
2009,10,05,00,14,11.80
2009,10,05,00,15,11.80
2009,10,05,00,16,11.80
2009,10,05,00,17,11.80
2009,10,05,00,18,11.90
2009,10,05,00,19,11.90
2009,10,05,00,20,11.80
2009,10,05,00,21,11.80
2009,10,05,00,22,11.80
2009,10,05,00,23,11.80
2009,10,05,00,24,11.90
2009,10,05,00,25,11.90
2009,10,05,00,26,11.90
2009,10,05,00,27,11.90
2009,10,05,00,28,11.90
2009,10,05,00,29,11.90
2009,10,05,00,30,11.90
2009,10,05,00,31,11.90
2009,10,05,00,32,12.00
2009,10,05,00,33,12.00
2009,10,05,00,34,12.10
2009,10,05,00,35,12.10
2009,10,05,00,36,12.20
2009,10,05,00,37,12.20
2009,10,05,00,38,12.30
2009,10,05,00,39,12.30
2009,10,05,00,40,12.30
2009,10,05,00,41,12.30
2009,10,05,00,42,12.30
2009,10,05,00,43,12.30
2009,10,05,00,44,12.30
2009,10,05,00,45,12.20
2009,10,05,00,46,12.20
2009,10,05,00,47,12.20
2009,10,05,00,48,12.20
2009,10,05,00,49,12.20
2009,10,05,00,50,12.20
2009,10,05,00,51,12.10
2009,10,05,00,52,12.10
2009,10,05,00,53,12.00
2009,10,05,00,54,12.00
2009,10,05,00,55,11.90
2009,10,05,00,56,12.00
2009,10,05,00,57,12.00
2009,10,05,00,58,12.00
2009,10,05,00,59,12.00
2009,10,05,01,00,12.10
2009,10,05,01,01,12.10
2009,10,05,01,02,12.20
2009,10,05,01,03,12.20
2009,10,05,01,04,12.30
2009,10,05,01,05,12.30
2009,10,05,01,06,12.30
2009,10,05,01,07,12.30
2009,10,05,01,08,12.30
2009,10,05,01,09,12.30
2009,10,05,01,10,12.30
2009,10,05,01,11,12.30
2009,10,05,01,12,12.30
2009,10,05,01,13,12.30
2009,10,05,01,14,12.30
2009,10,05,01,15,12.30
2009,10,05,01,16,12.30
2009,10,05,01,17,12.30
2009,10,05,01,18,12.30
2009,10,05,01,19,12.30
2009,10,05,01,20,12.20
2009,10,05,01,21,12.20
2009,10,05,01,22,12.20
2009,10,05,01,23,12.20
2009,10,05,01,24,12.10
2009,10,05,01,25,12.10
2009,10,05,01,26,12.10
2009,10,05,01,27,12.00
2009,10,05,01,28,12.00
2009,10,05,01,29,12.00
2009,10,05,01,30,12.00
2009,10,05,01,31,12.00
2009,10,05,01,32,12.00
2009,10,05,01,33,11.90
2009,10,05,01,34,11.90
2009,10,05,01,35,11.90
2009,10,05,01,36,11.90
2009,10,05,01,37,11.90
2009,10,05,01,38,11.90
2009,10,05,01,39,11.90
2009,10,05,01,40,11.90
2009,10,05,01,41,11.90
2009,10,05,01,42,11.90
2009,10,05,01,43,11.90
2009,10,05,01,44,11.90
2009,10,05,01,45,11.90
2009,10,05,01,46,11.90
2009,10,05,01,47,11.80
2009,10,05,01,48,11.80
2009,10,05,01,49,11.80
2009,10,05,01,50,11.80
2009,10,05,01,51,11.80
2009,10,05,01,52,11.80
2009,10,05,01,53,11.80
2009,10,05,01,54,11.80
2009,10,05,01,55,11.80
2009,10,05,01,56,11.80
2009,10,05,01,57,11.80
2009,10,05,01,58,11.80
2009,10,05,01,59,11.80
2009,10,05,02,00,11.80
2009,10,05,02,01,11.90
2009,10,05,02,02,11.90
2009,10,05,02,03,11.90
2009,10,05,02,04,11.90
2009,10,05,02,05,11.90
2009,10,05,02,06,11.90
2009,10,05,02,07,11.80
2009,10,05,02,08,11.80
2009,10,05,02,09,11.80
2009,10,05,02,10,11.80
2009,10,05,02,11,11.80
2009,10,05,02,12,11.70
2009,10,05,02,13,11.70
2009,10,05,02,14,11.60
2009,10,05,02,15,11.60
2009,10,05,02,16,11.60
2009,10,05,02,17,11.70
2009,10,05,02,18,11.70
2009,10,05,02,19,11.70
2009,10,05,02,20,11.80
2009,10,05,02,21,11.80
2009,10,05,02,22,11.80
2009,10,05,02,23,11.80
2009,10,05,02,24,11.80
2009,10,05,02,25,11.80
2009,10,05,02,26,11.80
2009,10,05,02,27,11.80
2009,10,05,02,28,11.80
2009,10,05,02,29,11.80
2009,10,05,02,30,11.80
2009,10,05,02,31,11.70
2009,10,05,02,32,11.60
2009,10,05,02,33,11.60
2009,10,05,02,34,11.60
2009,10,05,02,35,11.60
2009,10,05,02,36,11.60
2009,10,05,02,37,11.60
2009,10,05,02,38,11.60
2009,10,05,02,39,11.60
2009,10,05,02,40,11.50
2009,10,05,02,41,11.40
2009,10,05,02,42,11.40
2009,10,05,02,43,11.40
2009,10,05,02,44,11.40
2009,10,05,02,45,11.40
2009,10,05,02,46,11.40
2009,10,05,02,47,11.40
2009,10,05,02,48,11.40
2009,10,05,02,49,11.40
2009,10,05,02,50,11.40
2009,10,05,02,51,11.40
2009,10,05,02,52,11.40
2009,10,05,02,53,11.40
2009,10,05,02,54,11.50
2009,10,05,02,55,11.60
2009,10,05,02,56,11.60
2009,10,05,02,57,11.60
2009,10,05,02,58,11.60
2009,10,05,02,59,11.70
2009,10,05,03,00,11.70
2009,10,05,03,01,11.60
2009,10,05,03,02,11.60
2009,10,05,03,03,11.60
2009,10,05,03,04,11.60
2009,10,05,03,05,11.60
2009,10,05,03,06,11.60
2009,10,05,03,07,11.70
2009,10,05,03,08,11.70
2009,10,05,03,09,11.70
2009,10,05,03,10,11.60
2009,10,05,03,11,11.60
2009,10,05,03,12,11.60
2009,10,05,03,13,11.60
2009,10,05,03,14,11.60
2009,10,05,03,15,11.60
2009,10,05,03,16,11.60
2009,10,05,03,17,11.60
2009,10,05,03,18,11.60
2009,10,05,03,19,11.60
2009,10,05,03,20,11.60
2009,10,05,03,21,11.60
2009,10,05,03,22,11.60
2009,10,05,03,23,11.60
2009,10,05,03,24,11.50
2009,10,05,03,25,11.40
2009,10,05,03,26,11.40
2009,10,05,03,27,11.40
2009,10,05,03,28,11.40
2009,10,05,03,29,11.40
2009,10,05,03,30,11.30
2009,10,05,03,31,11.30
2009,10,05,03,32,11.20
2009,10,05,03,33,11.20
2009,10,05,03,34,11.10
2009,10,05,03,35,11.10
2009,10,05,03,36,11.10
2009,10,05,03,37,11.10
2009,10,05,03,38,10.90
2009,10,05,03,39,10.90
2009,10,05,03,40,10.90
2009,10,05,03,41,10.90
2009,10,05,03,42,10.90
2009,10,05,03,43,10.90
2009,10,05,03,44,10.90
2009,10,05,03,45,10.90
2009,10,05,03,46,10.90
2009,10,05,03,47,10.90
2009,10,05,03,48,10.90
2009,10,05,03,49,10.90
2009,10,05,03,50,10.90
2009,10,05,03,51,10.90
2009,10,05,03,52,10.90
2009,10,05,03,53,10.90
2009,10,05,03,54,10.90
2009,10,05,03,55,10.80
2009,10,05,03,56,10.80
2009,10,05,03,57,10.90
2009,10,05,03,58,10.90
2009,10,05,03,59,10.80
2009,10,05,04,00,10.80
2009,10,05,04,01,10.80
2009,10,05,04,02,10.80
2009,10,05,04,03,10.80
2009,10,05,04,04,10.80
2009,10,05,04,05,10.70
2009,10,05,04,06,10.70
2009,10,05,04,07,10.70
2009,10,05,04,08,10.70
2009,10,05,04,09,10.70
2009,10,05,04,10,10.60
2009,10,05,04,11,10.70
2009,10,05,04,12,10.70
2009,10,05,04,13,10.80
2009,10,05,04,14,10.80
2009,10,05,04,15,10.80
2009,10,05,04,16,10.80
2009,10,05,04,17,10.80
2009,10,05,04,18,10.90
2009,10,05,04,19,10.90
2009,10,05,04,20,10.90
2009,10,05,04,21,10.90
2009,10,05,04,22,11.00
2009,10,05,04,23,11.10
2009,10,05,04,24,11.10
2009,10,05,04,25,11.00
2009,10,05,04,26,10.90
2009,10,05,04,27,10.90
2009,10,05,04,28,10.90
2009,10,05,04,29,10.90
2009,10,05,04,30,10.90
2009,10,05,04,31,10.90
2009,10,05,04,32,10.90
2009,10,05,04,33,10.90
2009,10,05,04,34,10.90
2009,10,05,04,35,10.80
2009,10,05,04,36,10.70
2009,10,05,04,37,10.70
2009,10,05,04,38,10.70
2009,10,05,04,39,10.70
2009,10,05,04,40,10.60
2009,10,05,04,41,10.70
2009,10,05,04,42,10.70
2009,10,05,04,43,10.70
2009,10,05,04,44,10.80
2009,10,05,04,45,10.80
2009,10,05,04,46,10.80
2009,10,05,04,47,10.80
2009,10,05,04,48,10.90
2009,10,05,04,49,10.90
2009,10,05,04,50,10.80
2009,10,05,04,51,10.80
2009,10,05,04,52,10.80
2009,10,05,04,53,10.70
2009,10,05,04,54,10.70
2009,10,05,04,55,10.60
2009,10,05,04,56,10.60
2009,10,05,04,57,10.60
2009,10,05,04,58,10.50
2009,10,05,04,59,10.40
2009,10,05,05,00,10.40
2009,10,05,05,01,10.40
2009,10,05,05,02,10.40
2009,10,05,05,03,10.30
2009,10,05,05,04,10.30
2009,10,05,05,05,10.20
2009,10,05,05,06,10.20
2009,10,05,05,07,10.10
2009,10,05,05,08,10.10
2009,10,05,05,09,10.10
2009,10,05,05,10,10.10
2009,10,05,05,11,10.10
2009,10,05,05,12,10.10
2009,10,05,05,13,10.10
2009,10,05,05,14,10.10
2009,10,05,05,15,10.10
2009,10,05,05,16,10.10
2009,10,05,05,17,10.10
2009,10,05,05,18,10.10
2009,10,05,05,19,10.10
2009,10,05,05,20,10.10
2009,10,05,05,21,10.10
2009,10,05,05,22,10.10
2009,10,05,05,23,10.00
2009,10,05,05,24,9.90
2009,10,05,05,25,9.90
2009,10,05,05,26,9.90
2009,10,05,05,27,9.90
2009,10,05,05,28,9.90
2009,10,05,05,29,9.90
2009,10,05,05,30,9.90
2009,10,05,05,31,10.00
2009,10,05,05,32,10.10
2009,10,05,05,33,10.10
2009,10,05,05,34,10.10
2009,10,05,05,35,10.10
2009,10,05,05,36,10.10
2009,10,05,05,37,10.10
2009,10,05,05,38,10.10
2009,10,05,05,39,10.10
2009,10,05,05,40,10.20
2009,10,05,05,41,10.20
2009,10,05,05,42,10.20
2009,10,05,05,43,10.20
2009,10,05,05,44,10.30
2009,10,05,05,45,10.30
2009,10,05,05,46,10.40
2009,10,05,05,47,10.40
2009,10,05,05,48,10.40
2009,10,05,05,49,10.40
2009,10,05,05,50,10.40
2009,10,05,05,51,10.40
2009,10,05,05,52,10.30
2009,10,05,05,53,10.20
2009,10,05,05,54,10.20
2009,10,05,05,55,10.20
2009,10,05,05,56,10.10
2009,10,05,05,57,10.10
2009,10,05,05,58,10.10
2009,10,05,05,59,10.10
2009,10,05,06,00,10.10
2009,10,05,06,01,10.10
2009,10,05,06,02,10.10
2009,10,05,06,03,10.10
2009,10,05,06,04,10.10
2009,10,05,06,05,10.10
2009,10,05,06,06,10.00
2009,10,05,06,07,9.90
2009,10,05,06,08,9.90
2009,10,05,06,09,9.90
2009,10,05,06,10,9.90
2009,10,05,06,11,9.90
2009,10,05,06,12,9.90
2009,10,05,06,13,9.90
2009,10,05,06,14,9.90
2009,10,05,06,15,9.90
2009,10,05,06,16,9.90
2009,10,05,06,17,9.80
2009,10,05,06,18,9.80
2009,10,05,06,19,9.70
2009,10,05,06,20,9.70
2009,10,05,06,21,9.60
2009,10,05,06,22,9.50
2009,10,05,06,23,9.40
2009,10,05,06,24,9.30
2009,10,05,06,25,9.20
2009,10,05,06,26,9.10
2009,10,05,06,27,8.90
2009,10,05,06,28,8.80
2009,10,05,06,29,8.70
2009,10,05,06,30,8.70
2009,10,05,06,31,8.70
2009,10,05,06,32,8.60
2009,10,05,06,33,8.50
2009,10,05,06,34,8.50
2009,10,05,06,35,8.50
2009,10,05,06,36,8.40
2009,10,05,06,37,8.40
2009,10,05,06,38,8.40
2009,10,05,06,39,8.30
2009,10,05,06,40,8.20
2009,10,05,06,41,8.20
2009,10,05,06,42,8.20
2009,10,05,06,43,8.20
2009,10,05,06,44,8.10
2009,10,05,06,45,8.10
2009,10,05,06,46,8.10
2009,10,05,06,47,8.10
2009,10,05,06,48,8.10
2009,10,05,06,49,8.10
2009,10,05,06,50,8.10
2009,10,05,06,51,8.00
2009,10,05,06,52,8.00
2009,10,05,06,53,8.00
2009,10,05,06,54,8.00
2009,10,05,06,55,8.00
2009,10,05,06,56,8.00
2009,10,05,06,57,7.90
2009,10,05,06,58,7.90
2009,10,05,06,59,7.90
2009,10,05,07,00,7.90
2009,10,05,07,01,7.90
2009,10,05,07,02,7.90
2009,10,05,07,03,7.90
2009,10,05,07,04,7.90
2009,10,05,07,05,7.90
2009,10,05,07,06,7.80
2009,10,05,07,07,7.80
2009,10,05,07,08,7.80
2009,10,05,07,09,7.80
2009,10,05,07,10,7.80
2009,10,05,07,11,7.80
2009,10,05,07,12,7.80
2009,10,05,07,13,7.80
2009,10,05,07,14,7.80
2009,10,05,07,15,7.80
2009,10,05,07,16,7.80
2009,10,05,07,17,7.70
2009,10,05,07,18,7.70
2009,10,05,07,19,7.60
2009,10,05,07,20,7.60
2009,10,05,07,21,7.60
2009,10,05,07,22,7.50
2009,10,05,07,23,7.50
2009,10,05,07,24,7.50
2009,10,05,07,25,7.40
2009,10,05,07,26,7.40
2009,10,05,07,27,7.40
2009,10,05,07,28,7.30
2009,10,05,07,29,7.30
2009,10,05,07,30,7.30
2009,10,05,07,31,7.30
2009,10,05,07,32,7.30
2009,10,05,07,33,7.30
2009,10,05,07,34,7.30
2009,10,05,07,35,7.30
2009,10,05,07,36,7.20
2009,10,05,07,37,7.20
2009,10,05,07,38,7.20
2009,10,05,07,39,7.20
2009,10,05,07,40,7.10
2009,10,05,07,41,7.10
2009,10,05,07,42,7.10
2009,10,05,07,43,7.10
2009,10,05,07,44,7.00
2009,10,05,07,45,7.00
2009,10,05,07,46,7.00
2009,10,05,07,47,7.00
2009,10,05,07,48,6.90
2009,10,05,07,49,6.90
2009,10,05,07,50,6.90
2009,10,05,07,51,6.90
2009,10,05,07,52,6.90
2009,10,05,07,53,6.90
2009,10,05,07,54,6.90
2009,10,05,07,55,6.90
2009,10,05,07,56,6.90
2009,10,05,07,57,6.90
2009,10,05,07,58,6.80
2009,10,05,07,59,6.80
2009,10,05,08,00,6.80
2009,10,05,08,01,6.80
2009,10,05,08,02,6.80
2009,10,05,08,03,6.70
2009,10,05,08,04,6.70
2009,10,05,08,05,6.70
2009,10,05,08,06,6.70
2009,10,05,08,07,6.60
2009,10,05,08,08,6.60
2009,10,05,08,09,6.60
2009,10,05,08,10,6.60
2009,10,05,08,11,6.60
2009,10,05,08,12,6.60
2009,10,05,08,13,6.60
2009,10,05,08,14,6.60
2009,10,05,08,15,6.60
2009,10,05,08,16,6.60
2009,10,05,08,17,6.60
2009,10,05,08,18,6.60
2009,10,05,08,19,6.60
2009,10,05,08,20,6.60
2009,10,05,08,21,6.60
2009,10,05,08,22,6.60
2009,10,05,08,23,6.70
2009,10,05,08,24,6.70
2009,10,05,08,25,6.80
2009,10,05,08,26,6.80
2009,10,05,08,27,6.80
2009,10,05,08,28,6.80
2009,10,05,08,29,6.90
2009,10,05,08,30,6.90
2009,10,05,08,31,7.00
2009,10,05,08,32,7.00
2009,10,05,08,33,7.10
2009,10,05,08,34,7.10
2009,10,05,08,35,7.20
2009,10,05,08,36,7.30
2009,10,05,08,37,7.30
2009,10,05,08,38,7.40
2009,10,05,08,39,7.40
2009,10,05,08,40,7.50
2009,10,05,08,41,7.60
2009,10,05,08,42,7.70
2009,10,05,08,43,7.80
2009,10,05,08,44,7.80
2009,10,05,08,45,7.90
2009,10,05,08,46,8.00
2009,10,05,08,47,8.00
2009,10,05,08,48,8.10
2009,10,05,08,49,8.20
2009,10,05,08,50,8.30
2009,10,05,08,51,8.40
2009,10,05,08,52,8.50
2009,10,05,08,53,8.50
2009,10,05,08,54,8.60
2009,10,05,08,55,8.70
2009,10,05,08,56,8.70
2009,10,05,08,57,8.80
2009,10,05,08,58,8.80
2009,10,05,08,59,8.90
2009,10,05,09,00,9.00
2009,10,05,09,01,9.00
2009,10,05,09,02,9.10
2009,10,05,09,03,9.20
2009,10,05,09,04,9.30
2009,10,05,09,05,9.40
2009,10,05,09,06,9.40
2009,10,05,09,07,9.50
2009,10,05,09,08,9.60
2009,10,05,09,09,9.70
2009,10,05,09,10,9.70
2009,10,05,09,11,9.70
2009,10,05,09,12,9.80
2009,10,05,09,13,9.90
2009,10,05,09,14,9.90
2009,10,05,09,15,10.00
2009,10,05,09,16,10.10
2009,10,05,09,17,10.20
2009,10,05,09,18,10.30
2009,10,05,09,19,10.40
2009,10,05,09,20,10.40
2009,10,05,09,21,10.50
2009,10,05,09,22,10.60
2009,10,05,09,23,10.70
2009,10,05,09,24,10.80
2009,10,05,09,25,10.90
2009,10,05,09,26,11.00
2009,10,05,09,27,11.10
2009,10,05,09,28,11.20
2009,10,05,09,29,11.30
2009,10,05,09,30,11.40
2009,10,05,09,31,11.50
2009,10,05,09,32,11.70
2009,10,05,09,33,11.80
2009,10,05,09,34,11.90
2009,10,05,09,35,12.00
2009,10,05,09,36,12.10
2009,10,05,09,37,12.20
2009,10,05,09,38,12.30
2009,10,05,09,39,12.50
2009,10,05,09,40,12.60
2009,10,05,09,41,12.80
2009,10,05,09,42,13.00
2009,10,05,09,43,13.20
2009,10,05,09,44,13.40
2009,10,05,09,45,13.60
2009,10,05,09,46,13.70
2009,10,05,09,47,13.90
2009,10,05,09,48,14.00
2009,10,05,09,49,14.10
2009,10,05,09,50,14.20
2009,10,05,09,51,14.20
2009,10,05,09,52,14.30
2009,10,05,09,53,14.40
2009,10,05,09,54,14.50
2009,10,05,09,55,14.60
2009,10,05,09,56,14.70
2009,10,05,09,57,14.80
2009,10,05,09,58,14.80
2009,10,05,09,59,14.80
2009,10,05,10,00,14.80
2009,10,05,10,01,14.80
2009,10,05,10,02,14.70
2009,10,05,10,03,14.70
2009,10,05,10,04,14.70
2009,10,05,10,05,14.80
2009,10,05,10,06,14.90
2009,10,05,10,07,15.00
2009,10,05,10,08,15.10
2009,10,05,10,09,15.20
2009,10,05,10,10,15.30
2009,10,05,10,11,15.40
2009,10,05,10,12,15.40
2009,10,05,10,13,15.50
2009,10,05,10,14,15.50
2009,10,05,10,15,15.60
2009,10,05,10,16,15.60
2009,10,05,10,17,15.60
2009,10,05,10,18,15.60
2009,10,05,10,19,15.70
2009,10,05,10,20,15.80
2009,10,05,10,21,15.80
2009,10,05,10,22,15.80
2009,10,05,10,23,15.90
2009,10,05,10,24,15.90
2009,10,05,10,25,15.90
2009,10,05,10,26,15.90
2009,10,05,10,27,16.00
2009,10,05,10,28,16.10
2009,10,05,10,29,16.00
2009,10,05,10,30,15.90
2009,10,05,10,31,15.90
2009,10,05,10,32,15.90
2009,10,05,10,33,15.80
2009,10,05,10,34,15.90
2009,10,05,10,35,16.00
2009,10,05,10,36,16.10
2009,10,05,10,37,16.10
2009,10,05,10,38,16.20
2009,10,05,10,39,16.20
2009,10,05,10,40,16.30
2009,10,05,10,41,16.30
2009,10,05,10,42,16.40
2009,10,05,10,43,16.40
2009,10,05,10,44,16.50
2009,10,05,10,45,16.60
2009,10,05,10,46,16.70
2009,10,05,10,47,16.60
2009,10,05,10,48,16.60
2009,10,05,10,49,16.60
2009,10,05,10,50,16.60
2009,10,05,10,51,16.60
2009,10,05,10,52,16.60
2009,10,05,10,53,16.60
2009,10,05,10,54,16.60
2009,10,05,10,55,16.50
2009,10,05,10,56,16.40
2009,10,05,10,57,16.30
2009,10,05,10,58,16.30
2009,10,05,10,59,16.20
2009,10,05,11,00,16.10
2009,10,05,11,01,16.10
2009,10,05,11,02,16.10
2009,10,05,11,03,16.10
2009,10,05,11,04,16.10
2009,10,05,11,05,16.10
2009,10,05,11,06,16.10
2009,10,05,11,07,16.10
2009,10,05,11,08,16.10
2009,10,05,11,09,16.10
2009,10,05,11,10,16.10
2009,10,05,11,11,16.10
2009,10,05,11,12,16.10
2009,10,05,11,13,16.10
2009,10,05,11,14,16.10
2009,10,05,11,15,16.20
2009,10,05,11,16,16.30
2009,10,05,11,17,16.30
2009,10,05,11,18,16.30
2009,10,05,11,19,16.30
2009,10,05,11,20,16.30
2009,10,05,11,21,16.30
2009,10,05,11,22,16.30
2009,10,05,11,23,16.40
2009,10,05,11,24,16.40
2009,10,05,11,25,16.40
2009,10,05,11,26,16.60
2009,10,05,11,27,16.60
2009,10,05,11,28,16.70
2009,10,05,11,29,16.60
2009,10,05,11,30,16.60
2009,10,05,11,31,16.60
2009,10,05,11,32,16.60
2009,10,05,11,33,16.60
2009,10,05,11,34,16.70
2009,10,05,11,35,16.70
2009,10,05,11,36,16.70
2009,10,05,11,37,16.70
2009,10,05,11,38,16.70
2009,10,05,11,39,16.70
2009,10,05,11,40,16.70
2009,10,05,11,41,16.70
2009,10,05,11,42,16.70
2009,10,05,11,43,16.70
2009,10,05,11,44,16.70
2009,10,05,11,45,16.70
2009,10,05,11,46,16.70
2009,10,05,11,47,16.70
2009,10,05,11,48,16.70
2009,10,05,11,49,16.70
2009,10,05,11,50,16.70
2009,10,05,11,51,16.70
2009,10,05,11,52,16.80
2009,10,05,11,53,16.80
2009,10,05,11,54,16.90
2009,10,05,11,55,17.00
2009,10,05,11,56,17.00
2009,10,05,11,57,16.90
2009,10,05,11,58,16.90
2009,10,05,11,59,16.90
2009,10,05,12,00,16.80
2009,10,05,12,01,16.90
2009,10,05,12,02,16.90
2009,10,05,12,03,16.90
2009,10,05,12,04,17.00
2009,10,05,12,05,17.00
2009,10,05,12,06,16.90
2009,10,05,12,07,16.90
2009,10,05,12,08,16.80
2009,10,05,12,09,16.80
2009,10,05,12,10,16.80
2009,10,05,12,11,16.80
2009,10,05,12,12,16.70
2009,10,05,12,13,16.70
2009,10,05,12,14,16.80
2009,10,05,12,15,16.80
2009,10,05,12,16,16.90
2009,10,05,12,17,16.90
2009,10,05,12,18,17.00
2009,10,05,12,19,17.10
2009,10,05,12,20,17.20
2009,10,05,12,21,17.30
2009,10,05,12,22,17.30
2009,10,05,12,23,17.30
2009,10,05,12,24,17.30
2009,10,05,12,25,17.30
2009,10,05,12,26,17.30
2009,10,05,12,27,17.30
2009,10,05,12,28,17.30
2009,10,05,12,29,17.30
2009,10,05,12,30,17.30
2009,10,05,12,31,17.30
2009,10,05,12,32,17.30
2009,10,05,12,33,17.30
2009,10,05,12,34,17.30
2009,10,05,12,35,17.30
2009,10,05,12,36,17.10
2009,10,05,12,37,17.10
2009,10,05,12,38,17.10
2009,10,05,12,39,17.10
2009,10,05,12,40,17.10
2009,10,05,12,41,17.10
2009,10,05,12,42,17.10
2009,10,05,12,43,17.00
2009,10,05,12,44,17.00
2009,10,05,12,45,17.00
2009,10,05,12,46,17.20
2009,10,05,12,47,17.30
2009,10,05,12,48,17.30
2009,10,05,12,49,17.30
2009,10,05,12,50,17.30
2009,10,05,12,51,17.30
2009,10,05,12,52,17.30
2009,10,05,12,53,17.30
2009,10,05,12,54,17.20
2009,10,05,12,55,17.20
2009,10,05,12,56,17.20
2009,10,05,12,57,17.30
2009,10,05,12,58,17.30
2009,10,05,12,59,17.20
2009,10,05,13,00,17.30
2009,10,05,13,01,17.30
2009,10,05,13,02,17.30
2009,10,05,13,03,17.40
2009,10,05,13,04,17.50
2009,10,05,13,05,17.70
2009,10,05,13,06,17.80
2009,10,05,13,07,17.90
2009,10,05,13,08,17.90
2009,10,05,13,09,17.90
2009,10,05,13,10,17.90
2009,10,05,13,11,17.90
2009,10,05,13,12,17.90
2009,10,05,13,13,17.80
2009,10,05,13,14,17.70
2009,10,05,13,15,17.50
2009,10,05,13,16,17.40
2009,10,05,13,17,17.30
2009,10,05,13,18,17.30
2009,10,05,13,19,17.30
2009,10,05,13,20,17.30
2009,10,05,13,21,17.30
2009,10,05,13,22,17.30
2009,10,05,13,23,17.40
2009,10,05,13,24,17.40
2009,10,05,13,25,17.40
2009,10,05,13,26,17.40
2009,10,05,13,27,17.50
2009,10,05,13,28,17.70
2009,10,05,13,29,17.70
2009,10,05,13,30,17.70
2009,10,05,13,31,17.70
2009,10,05,13,32,17.80
2009,10,05,13,33,17.80
2009,10,05,13,34,17.80
2009,10,05,13,35,17.80
2009,10,05,13,36,17.80
2009,10,05,13,37,17.90
2009,10,05,13,38,17.80
2009,10,05,13,39,17.70
2009,10,05,13,40,17.70
2009,10,05,13,41,17.70
2009,10,05,13,42,17.70
2009,10,05,13,43,17.70
2009,10,05,13,44,17.80
2009,10,05,13,45,17.70
2009,10,05,13,46,17.70
2009,10,05,13,47,17.60
2009,10,05,13,48,17.50
2009,10,05,13,49,17.50
2009,10,05,13,50,17.50
2009,10,05,13,51,17.50
2009,10,05,13,52,17.30
2009,10,05,13,53,17.30
2009,10,05,13,54,17.40
2009,10,05,13,55,17.40
2009,10,05,13,56,17.50
2009,10,05,13,57,17.60
2009,10,05,13,58,17.70
2009,10,05,13,59,17.70
2009,10,05,14,00,17.70
2009,10,05,14,01,17.80
2009,10,05,14,02,17.90
2009,10,05,14,03,17.80
2009,10,05,14,04,17.70
2009,10,05,14,05,17.70
2009,10,05,14,06,17.70
2009,10,05,14,07,17.60
2009,10,05,14,08,17.70
2009,10,05,14,09,17.70
2009,10,05,14,10,17.70
2009,10,05,14,11,17.80
2009,10,05,14,12,17.80
2009,10,05,14,13,17.80
2009,10,05,14,14,17.90
2009,10,05,14,15,17.90
2009,10,05,14,16,18.10
2009,10,05,14,17,18.10
2009,10,05,14,18,18.20
2009,10,05,14,19,18.20
2009,10,05,14,20,18.20
2009,10,05,14,21,18.20
2009,10,05,14,22,18.20
2009,10,05,14,23,18.20
2009,10,05,14,24,18.20
2009,10,05,14,25,18.20
2009,10,05,14,26,18.20
2009,10,05,14,27,18.30
2009,10,05,14,28,18.30
2009,10,05,14,29,18.30
2009,10,05,14,30,18.40
2009,10,05,14,31,18.50
2009,10,05,14,32,18.50
2009,10,05,14,33,18.50
2009,10,05,14,34,18.40
2009,10,05,14,35,18.30
2009,10,05,14,36,18.20
2009,10,05,14,37,18.10
2009,10,05,14,38,18.00
2009,10,05,14,39,18.00
2009,10,05,14,40,18.10
2009,10,05,14,41,18.10
2009,10,05,14,42,18.10
2009,10,05,14,43,18.10
2009,10,05,14,44,18.10
2009,10,05,14,45,18.20
2009,10,05,14,46,18.20
2009,10,05,14,47,18.20
2009,10,05,14,48,18.20
2009,10,05,14,49,18.00
2009,10,05,14,50,17.90
2009,10,05,14,51,17.80
2009,10,05,14,52,17.70
2009,10,05,14,53,17.60
2009,10,05,14,54,17.60
2009,10,05,14,55,17.60
2009,10,05,14,56,17.60
2009,10,05,14,57,17.60
2009,10,05,14,58,17.60
2009,10,05,14,59,17.60
2009,10,05,15,00,17.50
2009,10,05,15,01,17.60
2009,10,05,15,02,17.60
2009,10,05,15,03,17.60
2009,10,05,15,04,17.60
2009,10,05,15,05,17.70
2009,10,05,15,06,17.70
2009,10,05,15,07,17.60
2009,10,05,15,08,17.60
2009,10,05,15,09,17.60
2009,10,05,15,10,17.60
2009,10,05,15,11,17.60
2009,10,05,15,12,17.60
2009,10,05,15,13,17.60
2009,10,05,15,14,17.60
2009,10,05,15,15,17.70
2009,10,05,15,16,17.60
2009,10,05,15,17,17.60
2009,10,05,15,18,17.60
2009,10,05,15,19,17.50
2009,10,05,15,20,17.50
2009,10,05,15,21,17.50
2009,10,05,15,22,17.60
2009,10,05,15,23,17.60
2009,10,05,15,24,17.70
2009,10,05,15,25,17.70
2009,10,05,15,26,17.80
2009,10,05,15,27,17.70
2009,10,05,15,28,17.60
2009,10,05,15,29,17.50
2009,10,05,15,30,17.40
2009,10,05,15,31,17.40
2009,10,05,15,32,17.30
2009,10,05,15,33,17.30
2009,10,05,15,34,17.20
2009,10,05,15,35,17.20
2009,10,05,15,36,17.10
2009,10,05,15,37,17.00
2009,10,05,15,38,17.00
2009,10,05,15,39,17.00
2009,10,05,15,40,17.10
2009,10,05,15,41,17.00
2009,10,05,15,42,17.00
2009,10,05,15,43,17.00
2009,10,05,15,44,16.90
2009,10,05,15,45,16.90
2009,10,05,15,46,16.90
2009,10,05,15,47,17.00
2009,10,05,15,48,17.10
2009,10,05,15,49,17.20
2009,10,05,15,50,17.20
2009,10,05,15,51,17.20
2009,10,05,15,52,17.20
2009,10,05,15,53,17.20
2009,10,05,15,54,17.10
2009,10,05,15,55,17.00
2009,10,05,15,56,17.00
2009,10,05,15,57,17.00
2009,10,05,15,58,16.90
2009,10,05,15,59,16.90
2009,10,05,16,00,17.00
2009,10,05,16,01,16.90
2009,10,05,16,02,16.90
2009,10,05,16,03,16.80
2009,10,05,16,04,16.80
2009,10,05,16,05,16.70
2009,10,05,16,06,16.70
2009,10,05,16,07,16.70
2009,10,05,16,08,16.70
2009,10,05,16,09,16.70
2009,10,05,16,10,16.70
2009,10,05,16,11,16.70
2009,10,05,16,12,16.70
2009,10,05,16,13,16.70
2009,10,05,16,14,16.70
2009,10,05,16,15,16.70
2009,10,05,16,16,16.70
2009,10,05,16,17,16.70
2009,10,05,16,18,16.70
2009,10,05,16,19,16.70
2009,10,05,16,20,16.70
2009,10,05,16,21,16.70
2009,10,05,16,22,16.70
2009,10,05,16,23,16.70
2009,10,05,16,24,16.70
2009,10,05,16,25,16.70
2009,10,05,16,26,16.60
2009,10,05,16,27,16.60
2009,10,05,16,28,16.60
2009,10,05,16,29,16.40
2009,10,05,16,30,16.40
2009,10,05,16,31,16.40
2009,10,05,16,32,16.50
2009,10,05,16,33,16.50
2009,10,05,16,34,16.40
2009,10,05,16,35,16.40
2009,10,05,16,36,16.40
2009,10,05,16,37,16.60
2009,10,05,16,38,16.60
2009,10,05,16,39,16.70
2009,10,05,16,40,16.70
2009,10,05,16,41,16.70
2009,10,05,16,42,16.70
2009,10,05,16,43,16.70
2009,10,05,16,44,16.70
2009,10,05,16,45,16.70
2009,10,05,16,46,16.70
2009,10,05,16,47,16.70
2009,10,05,16,48,16.70
2009,10,05,16,49,16.70
2009,10,05,16,50,16.70
2009,10,05,16,51,16.70
2009,10,05,16,52,16.70
2009,10,05,16,53,16.70
2009,10,05,16,54,16.70
2009,10,05,16,55,16.70
2009,10,05,16,56,16.70
2009,10,05,16,57,16.70
2009,10,05,16,58,16.70
2009,10,05,16,59,16.70
2009,10,05,17,00,16.70
2009,10,05,17,01,16.70
2009,10,05,17,02,16.70
2009,10,05,17,03,16.80
2009,10,05,17,04,16.80
2009,10,05,17,05,16.90
2009,10,05,17,06,16.90
2009,10,05,17,07,16.90
2009,10,05,17,08,16.90
2009,10,05,17,09,16.90
2009,10,05,17,10,16.90
2009,10,05,17,11,16.90
2009,10,05,17,12,16.90
2009,10,05,17,13,16.90
2009,10,05,17,14,16.90
2009,10,05,17,15,16.90
2009,10,05,17,16,16.90
2009,10,05,17,17,16.90
2009,10,05,17,18,16.90
2009,10,05,17,19,16.90
2009,10,05,17,20,16.90
2009,10,05,17,21,16.80
2009,10,05,17,22,16.80
2009,10,05,17,23,16.80
2009,10,05,17,24,16.80
2009,10,05,17,25,16.80
2009,10,05,17,26,16.80
2009,10,05,17,27,16.70